SH055 KNSE-KNSE

Flight info

Callsign SH055
Flight time 0h 18m
Altitude 12500
Route VFR
Aircraft TEX2/L-SDGRY/C

Departure

Time 2026-04-22 22:46
Airport Whiting Field Naval Air Station - North (KNSE)

Arrival

Time 2026-04-22 23:05
Airport Whiting Field Naval Air Station - North (KNSE)
Time Latitude Longitude Altitude Speed Heading
2026-04-22 22:31 30.71801 -87.02390 196 ft 0 kts 272°
2026-04-22 22:42 30.71804 -87.02399 191 ft 5 kts 314°
2026-04-22 22:43 30.71868 -87.02400 191 ft 13 kts
2026-04-22 22:43 30.71947 -87.02412 191 ft 10 kts 351°
2026-04-22 22:43 30.72022 -87.02412 191 ft 12 kts 10°
2026-04-22 22:43 30.72092 -87.02348 191 ft 14 kts 76°
2026-04-22 22:44 30.72087 -87.02259 191 ft 19 kts 98°
2026-04-22 22:44 30.72065 -87.02043 191 ft 16 kts 91°
2026-04-22 22:44 30.72019 -87.01975 191 ft 15 kts 144°
2026-04-22 22:44 30.71929 -87.01878 197 ft 18 kts 132°
2026-04-22 22:45 30.71834 -87.01776 201 ft 17 kts 139°
2026-04-22 22:45 30.71750 -87.01681 198 ft 16 kts 116°
2026-04-22 22:45 30.71777 -87.01607 191 ft 12 kts 48°
2026-04-22 22:45 30.71852 -87.01581 191 ft 11 kts 319°
2026-04-22 22:46 30.71987 -87.01719 192 ft 64 kts 317°
2026-04-22 22:46 30.72569 -87.02336 302 ft 149 kts 319°
2026-04-22 22:46 30.73431 -87.03133 713 ft 158 kts 320°
2026-04-22 22:46 30.73602 -87.04222 1107 ft 149 kts 231°
2026-04-22 22:47 30.72741 -87.04515 1395 ft 140 kts 157°
2026-04-22 22:47 30.71963 -87.03759 1339 ft 143 kts 133°
2026-04-22 22:47 30.71386 -87.02983 1130 ft 116 kts 134°
2026-04-22 22:47 30.70897 -87.02348 862 ft 102 kts 133°
2026-04-22 22:48 30.70632 -87.01573 687 ft 121 kts 72°
2026-04-22 22:48 30.71361 -87.01185 404 ft 129 kts 341°
2026-04-22 22:48 30.72043 -87.01787 211 ft 106 kts 316°
2026-04-22 22:48 30.72501 -87.02276 192 ft 91 kts 315°
2026-04-22 22:49 30.73137 -87.02954 465 ft 136 kts 315°
2026-04-22 22:49 30.73831 -87.03729 767 ft 148 kts 316°
2026-04-22 22:49 30.74621 -87.04447 1293 ft 142 kts 328°
2026-04-22 22:49 30.75538 -87.04751 1848 ft 135 kts 356°
2026-04-22 22:50 30.76456 -87.04818 2374 ft 128 kts 355°
2026-04-22 22:50 30.77360 -87.04929 2844 ft 145 kts 353°
2026-04-22 22:50 30.78484 -87.05059 3574 ft 173 kts 356°
2026-04-22 22:50 30.79719 -87.05181 4477 ft 178 kts 357°
2026-04-22 22:51 30.80936 -87.05313 5561 ft 175 kts 355°
2026-04-22 22:51 30.82186 -87.05517 6335 ft 192 kts 353°
2026-04-22 22:51 30.83574 -87.05794 6858 ft 205 kts 352°
2026-04-22 22:51 30.84947 -87.06086 7766 ft 193 kts 350°
2026-04-22 22:52 30.85778 -87.06259 8620 ft 172 kts 349°
2026-04-22 22:52 30.86807 -87.06499 10171 ft 133 kts 342°
2026-04-22 22:52 30.88042 -87.06913 11335 ft 148 kts 338°
2026-04-22 22:52 30.89043 -87.07286 12259 ft 153 kts 339°
2026-04-22 22:53 30.89738 -87.07510 12962 ft 152 kts 343°
2026-04-22 22:53 30.90742 -87.07764 14120 ft 143 kts 338°
2026-04-22 22:53 30.91585 -87.08356 14993 ft 154 kts 314°
2026-04-22 22:53 30.92382 -87.09250 15528 ft 176 kts 313°
2026-04-22 22:54 30.93258 -87.10306 16308 ft 181 kts 310°
2026-04-22 22:54 30.94150 -87.11311 17008 ft 170 kts 314°
2026-04-22 22:54 30.95197 -87.11986 17126 ft 187 kts 340°
2026-04-22 22:54 30.96469 -87.12503 17093 ft 209 kts 335°
2026-04-22 22:55 30.97888 -87.13269 17065 ft 239 kts 331°
2026-04-22 22:55 30.99033 -87.13975 18728 ft 76 kts 283°
2026-04-22 22:55 30.98419 -87.13188 18344 ft 133 kts 75°
2026-04-22 22:56 30.98640 -87.13737 15386 ft 219 kts 278°
2026-04-22 22:56 30.98036 -87.14382 16655 ft 135 kts 201°
2026-04-22 22:56 30.99080 -87.14505 14763 ft 54 kts 290°
2026-04-22 22:56 30.98928 -87.14785 13394 ft 271 kts 140°
2026-04-22 22:57 30.98721 -87.14005 15568 ft 129 kts 52°
2026-04-22 22:57 30.98532 -87.14795 14030 ft 80 kts 274°
2026-04-22 22:57 30.98074 -87.14891 14303 ft 23 kts 351°
2026-04-22 22:57 30.99319 -87.14189 13263 ft 233 kts 27°
2026-04-22 22:58 31.00427 -87.13376 12988 ft 185 kts 37°
2026-04-22 22:58 31.01216 -87.12363 13067 ft 166 kts 49°
2026-04-22 22:58 31.01882 -87.11243 12837 ft 170 kts 58°
2026-04-22 22:58 31.02058 -87.09877 11670 ft 196 kts 105°
2026-04-22 22:59 31.01192 -87.08554 10278 ft 220 kts 162°
2026-04-22 22:59 30.99859 -87.08977 9875 ft 209 kts 217°
2026-04-22 22:59 30.98381 -87.09877 8301 ft 276 kts 204°
2026-04-22 22:59 30.96476 -87.10901 6549 ft 298 kts 209°
2026-04-22 23:00 30.94781 -87.11939 5648 ft 268 kts 210°
2026-04-22 23:00 30.93125 -87.13024 4902 ft 276 kts 212°
2026-04-22 23:00 30.91353 -87.13902 3577 ft 290 kts 195°
2026-04-22 23:00 30.89461 -87.14465 3222 ft 268 kts 197°
2026-04-22 23:01 30.87772 -87.14993 3067 ft 236 kts 198°
2026-04-22 23:01 30.86178 -87.15252 3080 ft 229 kts 169°
2026-04-22 23:01 30.84818 -87.14330 3135 ft 232 kts 140°
2026-04-22 23:01 30.83591 -87.13140 3037 ft 228 kts 145°
2026-04-22 23:02 30.82310 -87.12054 2976 ft 223 kts 144°
2026-04-22 23:02 30.81104 -87.11007 3009 ft 215 kts 145°
2026-04-22 23:02 30.79942 -87.09953 2922 ft 211 kts 142°
2026-04-22 23:02 30.78820 -87.08858 2610 ft 205 kts 142°
2026-04-22 23:03 30.77843 -87.07886 2236 ft 176 kts 141°
2026-04-22 23:03 30.76961 -87.06968 1895 ft 159 kts 141°
2026-04-22 23:03 30.76230 -87.06192 1619 ft 145 kts 140°
2026-04-22 23:03 30.75446 -87.05404 1272 ft 149 kts 143°
2026-04-22 23:04 30.74683 -87.04631 876 ft 142 kts 140°
2026-04-22 23:04 30.73977 -87.03855 540 ft 136 kts 139°
2026-04-22 23:04 30.73296 -87.03133 312 ft 136 kts 140°
2026-04-22 23:04 30.72653 -87.02446 205 ft 104 kts 138°
2026-04-22 23:05 30.72234 -87.01996 192 ft 62 kts 136°
2026-04-22 23:05 30.71990 -87.01742 192 ft 50 kts 139°
2026-04-22 23:05 30.71785 -87.01523 191 ft 12 kts 148°